Regional Weather Roundup
Issued by NWS San Diego, CA

Home | Current Version | Previous Version | Text Only | Print | Product List | Glossary On
Versions: 1 2 3 4 5 6 7 8 9 10 11 12 13 14 15 16 17 18 19 20 21 22 23 24 25 26 27
000
ASUS46 KSGX 310411
RWRSGX

SAN DIEGO HOURLY WEATHER ROUNDUP
NATIONAL WEATHER SERVICE SAN DIEGO CA
900 PM PDT SAT JUL 30 2016

NOTE: "FAIR" INDICATES FEW OR NO CLOUDS BELOW 12,000 FEET WITH NO
SIGNIFICANT WEATHER AND/OR OBSTRUCTIONS TO VISIBILITY.

CAZ042-043-060-061-PZZ750-775-310500-

GREATER SAN DIEGO AREA

CITY           SKY/WX    TMP DP  RH WIND       PRES   REMARKS
LINDBERGH FLD  PTCLDY    70  64  81 SW5       29.88R
POINT LOMA       N/A     70  64  81 S3          N/A
NATIONAL CITY    N/A     73  66  79 CALM      29.88R
CHULA VISTA      N/A     72  67  85 W3        29.79R
IMPERIAL BEACH CLEAR     73  65  75 SW6       29.87R
BROWN FIELD    PTCLDY    72  64  76 VRB5      29.87R
MIRAMAR MCAS   PTCLDY    73  63  70 SW5       29.87R
MONTGOMERY FLD CLEAR     72  64  76 W6        29.87R

$$

NORTH SAN DIEGO COUNTY

CITY           SKY/WX    TMP DP  RH WIND       PRES   REMARKS
CAMP PENDLETON CLEAR     72  66  81 VRB5      29.86R
OCEANSIDE AP   CLEAR     72  64  76 SW7       29.85R
OCEANSIDE HBR    N/A     71  67  85 CALM      29.88R
VISTA            N/A     72  66  81 CALM      29.83R
CARLSBAD       CLEAR     71  66  84 SW7       29.86R
DEL MAR          N/A     70  67  89 W2        29.89R
LA JOLLA SCRIP   N/A     70  67  89 SW2       29.86R
FALLBROOK        N/A     73  68  84 S1        29.84R
ESCONDIDO        N/A     76  66  71 CALM      29.87R
SAN MARCOS       N/A     72  62  71 CALM      29.88R
POWAY            N/A     74  66  74 CALM      29.86R

$$

EAST SAN DIEGO COUNTY

CITY           SKY/WX    TMP DP  RH WIND       PRES   REMARKS
RAMONA         CLEAR     76  62  62 SW3       29.90R
SANTEE LAKES     N/A     74  66  76 SW3       29.85R
LA MESA          N/A     71  65  81 CALM      29.79R
JAMUL            N/A     72  65  78 CALM      29.85R
DESCANSO N       N/A     74  59  59 SE1       29.73R
MT. LAGUNA OBS   N/A     66  57  73 W3        29.73S
CAMPO            N/A     77  59  53 SW10      29.92R

$$

ORANGE COUNTY AND THE LOS ANGELES BASIN

CITY           SKY/WX    TMP DP  RH WIND       PRES   REMARKS
JOHN WAYNE AP  PTCLDY    71  65  81 S8        29.85R
LAGUNA BEACH     N/A    N/A N/A N/A SE1       29.80R
LAKE FOREST FR   N/A     73  62  68 CALM      29.73R
HUNTINGTON BCH   N/A     72  68  88 CALM      29.87R
LOS ALAMITOS   FAIR      72  67  82 S5        29.85R
FULLERTON      CLEAR     76  65  68 S5        29.84R
LONG BEACH     CLEAR     74  66  76 S5        29.85R
L.A. AP        CLEAR     70  65  84 W7        29.85R
L.A. DOWNTOWN  CLEAR     75  65  70 CALM      29.84R

$$

THE INLAND EMPIRE

CITY           SKY/WX    TMP DP  RH WIND       PRES   REMARKS
CORONA         CLEAR     76  65  68 W10       29.85R
CHINO          CLEAR     78  64  61 SW12      29.86R
ONTARIO        CLEAR     80  62  54 SW9       29.85R
SAN BERNARDINO PTCLDY    86  61  42 MISG      29.85R HAZE
RIVERSIDE AP   CLEAR     80  62  54 W6        29.85R
MORENO VALLEY    N/A     84  67  57 SW2       28.01R
HORSETHIEF CYN   N/A     80  60  49 N1        29.84R
PERRIS           N/A     83  60  46 S3        29.88R
HEMET EAST       N/A     81  58  44 CALM      29.71R
FRENCH VALLEY  FAIR      79  61  53 SW7       29.89R
TEMECULA         N/A     78  65  64 SW2       29.84R

$$

SAN BERNARDINO AND RIVERSIDE COUNTY MOUNTAINS

CITY           SKY/WX    TMP DP  RH WIND       PRES   REMARKS
BIG BEAR AP    PTCLDY    63  59  88 CALM      30.22R
PINE COVE        N/A     64  60  87 NW1       29.75R

$$

SOUTHERN DESERT INCLUDING THE COACHELLA VALLEY

CITY           SKY/WX    TMP DP  RH WIND       PRES   REMARKS
PALM SPRINGS   CLEAR     96  70  42 E3        29.76R HX 102
THOUSAND PALMS   N/A     95  71  46 E1        29.72R HX 102
PALM DESERT      N/A     95  73  48 CALM        N/A  HX 104
THERMAL        CLEAR     91  70  49 E3        29.69R HX  96
BLYTHE         CLEAR     92  71  50 S13       29.75R HX  98
IMPERIAL AP    CLEAR     94  71  47 SE12      29.71R HX 101
EL CENTRO NAS  CLEAR     92  69  47 SE12      29.72R HX  97
YUMA AZ        CLEAR     89  71  55 S7        29.76R HX  95
MEXICALI       CLEAR     86  73  66 SE10      29.74R

$$

UPPER DESERT

CITY           SKY/WX    TMP DP  RH WIND       PRES   REMARKS
VICTORVILLE AP CLEAR     84  57  39 S16       29.89R
HESPERIA         N/A     81  62  51 W14       29.80R
PALMDALE       CLEAR     86  55  34 SW21      29.88R
LANCASTER      CLEAR     84  58  40 SW20      29.86R
EDWARDS AFB    CLEAR     87  55  34 SW21      29.83R
DAGGETT        PTCLDY    95  58  28 SW17      29.77R
29 PALMS N     PTCLDY    89  61  38 SW20      29.88R
NEEDLES        PTCLDY    97  64  33 SE9       29.75R HX  99

$$

REGIONAL REPORTS

CITY           SKY/WX    TMP DP  RH WIND       PRES   REMARKS
SANTA BARBARA  CLEAR     64  63  96 CALM      29.84R
SANDBERG       CLEAR     75  57  53 SW9       30.07R
LAS VEGAS NV   PTCLDY    99  54  22 S6        29.72R HX  97
PHOENIX AZ     PTCLDY    95  63  34 SW7       29.77R HX  96
TIJUANA        PTCLDY    72  61  68 NW6       29.89R
ENSENADA NW      N/A     70  32  24 W2        29.85R

$$

OFFSHORE ISLANDS

CITY           SKY/WX    TMP DP  RH WIND       PRES   REMARKS
CATALINA ARPT  CLEAR     64  61  90 S3        29.90R
SAN NICOLAS IS PTCLDY    69  32  25 SW5       29.87R

$$

MARINE AND OFFSHORE BUOY REPORTS

STATION/POSITION SKY/WX   TEMP    WIND        PRES    SWELL
                          AIR SEA DIR/SP/G            HT/PER/DIR
                          (F)     (DEG/KT/KT) (MB)    (FT/S/D)
TANNER BANKS               62 65  280/  4/  6 1011.4R   3/320/10
S CLEMENTE BASIN           66 69  250/  4/  6 1011.0R   3/200/14
SAN NICOLAS IS.               63                N/A     3/210/18
SO. S. ROSA ISLA           62 68  300/ 12/ 14 1010.7R   5/310/10
W. S. BARBARA CH           60 66  300/ 16/ 17 1010.2R   3/320/10
M. S. BARBARA CH                  250/  8/ 10 1011.1R
S. MONICA BASIN            68 71  220/  4/  4 1010.4R
S PEDRO CHANNEL               76                N/A     2/200/11
OCEANSIDE OFFSHR                                N/A     2/200/15
TORREY PINES OTR                                N/A     2/200/18
LA JOLLA 1                    72                N/A
SAN DIEGO BAY                 77                N/A
POINT LOMA SOUTH              75                N/A     2/200/17

$$





USA.gov is the U.S. government's official web portal to all federal, state and local government web resources and services.